Regional Weather Roundup
Issued by NWS Bismarck, ND

Home | Current Version | Previous Version | Text Only | Print | Product List | Glossary On
Versions: 1 2 3 4 5 6 7 8 9 10 11 12 13 14 15 16 17 18 19 20 21 22 23 24 25 26 27 28 29 30 31 32 33 34 35 36 37 38 39 40 41 42 43 44 45 46 47 48 49 50
482
ASUS43 KBIS 231310
RWRBIS

NWR BROADCAST TEXT
NATIONAL WEATHER SERVICE BISMARCK ND
800 AM CDT FRI JUN 23 2017

NOTE: "FAIR" INDICATES FEW OR NO CLOUDS BELOW 12,000 FEET WITH NO
SIGNIFICANT WEATHER AND/OR OBSTRUCTIONS TO VISIBILITY.


CITY           SKY/WX    TMP DP  RH WIND       PRES   REMARKS
WILLISTON      MOSUNNY   50  39  66 NW15      30.13R
MINOT          CLOUDY    53  41  63 W22       30.00R
MINOT AFB      CLOUDY    52  41  64 NW18G30   29.99R
BISMARCK       CLOUDY    56  46  69 NW15G23   30.03S
DICKINSON      PTSUNNY   49  40  71 W17       30.10R
GARRISON         N/A     50  40  68 NW23G35   30.03R
HETTINGER ARPT MOSUNNY   51  39  63 NW23G32   30.14R
JAMESTOWN      CLOUDY    57  46  66 NW25G35   29.91R
HAZEN          CLOUDY    52  41  66 NW22G29   30.08R
LINTON         CLOUDY   N/A N/A N/A NW20G28   30.05R
MANDAN         CLOUDY    52  46  82 NW20G28   30.04R
STANLEY        PTSUNNY   48  45  87 NW12G18   30.08R
TIOGA          FAIR      48  48 100 NW21G28   30.08S
WATFORD CITY   CLOUDY    48  41  76 W13       30.12R
$$

CITY           SKY/WX    TMP DP  RH WIND       PRES   REMARKS
GRAND FORKS    CLOUDY    60  53  77 NW18G24   29.80R
GRAND FORKS AF CLOUDY    58  51  75 NW18G24   29.82R
DEVILS LAKE    CLOUDY    56  47  71 NW20G26   29.89R
FARGO          CLOUDY    62  53  72 NW22G31   29.82R
CAVALIER       CLOUDY    59  50  72 NW21G26   29.80R
GRAFTON        PTSUNNY   57  55  94 NW20G26   29.82R
GWINNER        CLOUDY    59  50  72 NW20G25   29.89R
LANGDON        CLOUDY    54  52  94 NW22G29   29.85R
ROLLA            N/A     52  45  76 NW30G38   29.89R
$$

CITY           SKY/WX    TMP DP  RH WIND       PRES   REMARKS
ABERDEEN       CLOUDY    58  49  72 NW17G25   29.96R
MOBRIDGE       CLOUDY    58  43  57 NW24G33   30.02R
BUFFALO          N/A     53  40  61 NW24      30.12R
RAPID CITY     SUNNY     54  39  57 NW23G31   30.19R
GLASGOW        PTSUNNY   46  39  76 NW7       30.22R
SIDNEY         MOSUNNY   48  37  65 NW10      30.16R
WOLF POINT     CLOUDY    53  40  61 W13       30.20R
GLENDIVE       CLOUDY    50  40  68 NW8       30.20R
MILES CITY     PTSUNNY   52  36  54 NW13      30.23R
BAKER          CLOUDY    50  39  66 NW15      30.20R
$$

CITY           SKY/WX    TMP DP  RH WIND       PRES   REMARKS
BILLINGS       MOSUNNY   48  38  68 SW5       30.30R
GREAT FALLS    CLOUDY    46  39  76 SW6       30.31R
REGINA         MOSUNNY   46  39  76 NW23      30.10R
ESTEVAN        MOSUNNY   48  43  81 NW23G31   30.06R
$$





USA.gov is the U.S. government's official web portal to all federal, state and local government web resources and services.